Location: Beadle
(51.4667°N, 109.0000°W)
Time: 06:04:46
(UTC+00:00)

Envisat - Pass Details

Date: 25 January 2022
Orbit: 764 x 765 km, 98.2° (Epoch: 25 May)

Event Time Altitude Azimuth Distance (km) Brightness Sun altitude
Rises 11:33:40 0° 20° (NNE) 3,244 6.6 -32.4°
Reaches altitude 10° 11:36:11 10° 29° (NNE) 2,313 5.9 -32.0°
Maximum altitude 11:40:51 36° 96° (E) 1,207 4.4 -31.3°
Drops below altitude 10° 11:45:30 10° 162° (SSE) 2,298 5.5 -30.6°
Sets 11:47:58 0° 171° (S) 3,220 6.3 -30.2°
